Sisseton, SD

7:57 AM CDT on August 23, 2017 (GMT -0500)
Sisseton

Weather History for K8D3 - July, 2011

Change the Weather History Date:

Saturday, July 2, 2011

  Actual Average Record
Temperature  
Mean Temperature 73 °F 70 °F  
Max Temperature 84 °F 81 °F 100 °F (1949)
Min Temperature 62 °F 59 °F 44 °F (1994)
Degree Days  
Heating Degree Days 0 1  
Month to date heating degree days 0 2  
Since 1 June heating degree days 55 64  
Since 1 July heating degree days 0 2  
Cooling Degree Days 8 6  
Month to date cooling degree days 18 11  
Year to date cooling degree days 121 128  
Since 1 June cooling degree days 112 105  
Growing Degree Days 23 (Base 50)    
Moisture  
Dew Point 57 °F    
Average Humidity 60    
Maximum Humidity 87    
Minimum Humidity 33    
Precipitation  
Precipitation 0.00 in 0.11 in 3.65 in (1903)
Month to date precipitation 0.33 0.22  
Year to date precipitation 12.47 10.94  
Sea Level Pressure  
Sea Level Pressure 30.03 in    
Wind  
Wind Speed 5 mph (WNW)    
Max Wind Speed 16 mph    
Max Gust Speed 24 mph    
T = Trace of Precipitation, MM = Missing Value Source: NWS Daily Summary

Daily Weather History Graph

Daily Weather History Graph

Search for Another Location

Airport or City:

Trip Planner

Search our weather history database for the weather conditions in past years. The results will help you decide how hot, cold, wet, or windy it might be!

Date:

Astronomy

Jul. 02, 2011 Rise Set
Actual Time 5:42 AM CDT 9:20 PM CDT
Civil Twilight 5:05 AM CDT 9:58 PM CDT
Nautical Twilight 4:14 AM CDT 10:49 PM CDT
Astronomical Twilight 3:06 AM CDT 11:56 PM CDT
Moon 7:11 AM CDT (7/2) 10:11 PM CDT (7/2)
Length of Visible Light 16h 53m
Length of Day
15h 37m
New Moon, 2% of the Moon is Illuminated
Jul 2
New Moon
Jul 8
First Quarter
Jul 15
Full
Jul 23
Last Quarter
Jul 30
New

Hourly Weather History & Observations

Time (CDT) Temp. Heat Index Dew Point Humidity Pressure Visibility Wind Dir Wind Speed Gust Speed Precip Events Conditions
12:56 AM 68.0 °F - 61.0 °F 78% 29.94 in - WNW 11.5 mph - N/A   Unknown
1:56 AM 68.0 °F - 61.0 °F 78% 29.96 in - WNW 13.8 mph 24.2 mph N/A   Unknown
2:56 AM 68.0 °F - 61.0 °F 78% 29.97 in - WNW 12.7 mph - N/A   Unknown
3:56 AM 64.9 °F - 60.1 °F 84% 29.99 in - NW 5.8 mph - N/A   Unknown
4:56 AM 64.9 °F - 57.9 °F 78% 30.00 in - WNW 5.8 mph - N/A   Unknown
5:56 AM 64.0 °F - 57.0 °F 78% 30.03 in - NNW 6.9 mph - N/A   Unknown
6:56 AM 64.9 °F - 57.0 °F 75% 30.04 in - NW 4.6 mph - N/A   Unknown
7:56 AM 70.0 °F - 57.0 °F 63% 30.05 in - NNW 5.8 mph - N/A   Unknown
8:56 AM 72.0 °F - 57.0 °F 59% 30.06 in - North 6.9 mph - N/A   Unknown
9:56 AM 75.0 °F - 55.9 °F 51% 30.07 in - North 4.6 mph - N/A   Unknown
10:56 AM 75.9 °F - 55.9 °F 50% 30.08 in - Calm Calm - N/A   Unknown
11:56 AM 78.1 °F - 54.0 °F 43% 30.09 in - Calm Calm - N/A   Unknown
12:56 PM 80.1 °F 80.1 °F 55.0 °F 42% 30.09 in - SSW 4.6 mph - N/A   Unknown
1:56 PM 81.0 °F 80.4 °F 53.1 °F 38% 30.08 in - NNW 5.8 mph - N/A   Unknown
2:56 PM 81.0 °F - 52.0 °F 36% 30.07 in - West 5.8 mph - N/A   Unknown
3:56 PM 82.0 °F - 50.0 °F 33% 30.06 in - Calm Calm - N/A   Unknown
4:56 PM 82.0 °F 81.2 °F 53.1 °F 37% 30.04 in - NW 6.9 mph - N/A   Unknown
5:56 PM 82.9 °F - 51.1 °F 33% 30.04 in - Calm Calm - N/A   Unknown
6:56 PM 82.9 °F - 50.0 °F 32% 30.01 in - Calm Calm - N/A   Unknown
7:56 PM 81.0 °F 80.5 °F 54.0 °F 39% 30.00 in - ESE 3.5 mph - N/A   Unknown
8:56 PM 75.9 °F - 61.0 °F 60% 30.01 in - South 3.5 mph - N/A   Unknown
9:56 PM 69.1 °F - 60.1 °F 73% 30.01 in - Calm Calm - N/A   Unknown
10:56 PM 69.1 °F - 61.0 °F 75% 30.00 in - SW 3.5 mph - N/A   Unknown
11:56 PM 66.9 °F - 61.0 °F 81% 30.00 in - SW 3.5 mph - N/A   Unknown